Location: Big Prairie
(40.6673°N, 82.0952°W)
Time: 19:02:19
(UTC+00:00)

USA 276 - Pass Details

Date: 03 July 2022
Orbit: 366 x 369 km, 50.0° (Epoch: 12 July)

Event Time Altitude Azimuth Distance (km) Brightness Sun altitude
Rises 03:29:55 0° 291° (WNW) 2,206 6.7 -20.3°
Reaches altitude 10° 03:32:35 10° 317° (NW) 1,359 5.9 -20.5°
Maximum altitude 03:34:25 15° 354° (N) 1,114 5.3 -20.7°
Drops below altitude 10° 03:36:16 10° 31° (NNE) 1,360 5.2 -20.9°
Sets 03:38:56 0° 57° (ENE) 2,210 6.0 -21.1°
